Tracking 19574 objects as of 15-Feb-2019
HD Live streaming from Space Station
objects crossing your sky now

EKRAN 4

Track EKRAN 4 now!
EKRAN 4 is classified as:


NORAD ID: 11561
Int'l Code: 1979-087A
Perigee: 35,747.8 km
Apogee: 35,825.9 km
Inclination: 11.8 °
Period: 1,435.7 minutes
Semi major axis: 42157 km
RCS: 0.1995 m2 (medium)
Launch date: October 3, 1979
Source: Commonwealth of Independent States (former USSR) (CIS)
Launch site: TYURATAM MISSILE AND SPACE COMPLEX (TTMTR)
aabbcc
Your satellite tracking list
Your tracking list is empty




NASA's NSSDC Master Catalog

Two Line Element Set (TLE):
1 11561U 79087A   19045.84985803  .00000071  00000-0  00000+0 0  9996
2 11561  11.7530 315.6834 0009262  53.2053 136.9478  1.00296409106051
Source of the keplerian elements: AFSPC